TimeCST,TemperatureF,Dew PointF,Humidity,Sea Level PressureIn,VisibilityMPH,Wind Direction,Wind SpeedMPH,Gust SpeedMPH,PrecipitationIn,Events,Conditions,WindDirDegrees,DateUTC
12:15 AM,37.4,30.2,75,30.10,10.0,SSE,11.5,17.3,N/A,,Scattered Clouds,150,2012-12-06 06:15:00
12:35 AM,37.4,30.2,75,30.10,10.0,SE,11.5,-,N/A,,Scattered Clouds,140,2012-12-06 06:35:00
12:55 AM,37.4,30.2,75,30.10,10.0,SE,9.2,-,N/A,,Scattered Clouds,140,2012-12-06 06:55:00
1:15 AM,37.4,30.2,75,30.10,10.0,SE,6.9,-,N/A,,Clear,140,2012-12-06 07:15:00
1:35 AM,39.2,30.2,70,30.09,10.0,SSE,9.2,-,N/A,,Mostly Cloudy,150,2012-12-06 07:35:00
1:55 AM,37.4,30.2,75,30.08,10.0,SE,12.7,18.4,N/A,,Overcast,140,2012-12-06 07:55:00
2:15 AM,37.4,30.2,75,30.07,10.0,SE,12.7,-,N/A,,Mostly Cloudy,140,2012-12-06 08:15:00
2:35 AM,39.2,30.2,70,30.06,10.0,SE,10.4,-,N/A,,Overcast,140,2012-12-06 08:35:00
2:55 AM,39.2,30.2,70,30.06,10.0,SSE,11.5,-,N/A,,Mostly Cloudy,150,2012-12-06 08:55:00
3:15 AM,39.2,30.2,70,30.05,10.0,SSE,6.9,-,N/A,,Mostly Cloudy,150,2012-12-06 09:15:00
3:35 AM,39.2,30.2,70,30.04,10.0,SSE,9.2,-,N/A,,Mostly Cloudy,150,2012-12-06 09:35:00
3:55 AM,39.2,30.2,70,30.04,10.0,SSE,9.2,-,N/A,,Mostly Cloudy,150,2012-12-06 09:55:00
4:15 AM,39.2,30.2,70,30.04,10.0,SSE,6.9,-,N/A,,Mostly Cloudy,150,2012-12-06 10:15:00
4:35 AM,39.2,30.2,70,30.03,10.0,SSE,6.9,-,N/A,,Mostly Cloudy,150,2012-12-06 10:35:00
7:35 AM,39.2,33.8,81,30.00,10.0,SSE,9.2,-,N/A,,Overcast,150,2012-12-06 13:35:00
7:55 AM,39.2,33.8,81,29.99,10.0,SSE,10.4,-,N/A,,Overcast,150,2012-12-06 13:55:00
8:15 AM,41.0,33.8,76,29.99,10.0,SSE,9.2,-,N/A,,Scattered Clouds,160,2012-12-06 14:15:00
8:35 AM,41.0,33.8,76,29.99,10.0,SSE,12.7,-,N/A,,Clear,160,2012-12-06 14:35:00
8:55 AM,42.8,33.8,70,29.99,10.0,SSE,10.4,-,N/A,,Clear,160,2012-12-06 14:55:00
9:15 AM,42.8,33.8,70,29.98,10.0,SSE,13.8,-,N/A,,Clear,160,2012-12-06 15:15:00
9:35 AM,42.8,35.6,76,29.97,10.0,SSE,13.8,18.4,N/A,,Clear,160,2012-12-06 15:35:00
9:55 AM,44.6,35.6,71,29.97,10.0,SSE,11.5,17.3,N/A,,Clear,160,2012-12-06 15:55:00
10:15 AM,46.4,35.6,66,29.97,10.0,South,12.7,21.9,N/A,,Clear,180,2012-12-06 16:15:00
10:35 AM,48.2,35.6,62,29.96,10.0,South,12.7,18.4,N/A,,Clear,190,2012-12-06 16:35:00
10:55 AM,46.4,35.6,66,29.95,10.0,South,13.8,19.6,N/A,,Clear,190,2012-12-06 16:55:00
11:15 AM,46.4,35.6,66,29.94,10.0,South,15.0,19.6,N/A,,Clear,190,2012-12-06 17:15:00
11:35 AM,46.4,35.6,66,29.92,10.0,SSW,12.7,17.3,N/A,,Clear,200,2012-12-06 17:35:00
11:55 AM,48.2,35.6,62,29.91,10.0,South,13.8,17.3,N/A,,Clear,190,2012-12-06 17:55:00
12:15 PM,48.2,35.6,62,29.90,10.0,South,11.5,-,N/A,,Clear,190,2012-12-06 18:15:00
12:35 PM,48.2,35.6,62,29.91,10.0,SSW,10.4,-,N/A,,Clear,200,2012-12-06 18:35:00
12:55 PM,48.2,35.6,62,29.90,10.0,SSW,9.2,-,N/A,,Scattered Clouds,200,2012-12-06 18:55:00
1:15 PM,48.2,35.6,62,29.90,10.0,SSW,10.4,-,N/A,,Clear,210,2012-12-06 19:15:00
1:35 PM,48.2,37.4,66,29.89,10.0,SSW,10.4,-,N/A,,Mostly Cloudy,200,2012-12-06 19:35:00
1:55 PM,48.2,37.4,66,29.90,10.0,SW,12.7,-,N/A,,Overcast,230,2012-12-06 19:55:00
2:15 PM,48.2,37.4,66,29.89,10.0,SW,9.2,-,N/A,,Overcast,220,2012-12-06 20:15:00
2:35 PM,48.2,37.4,66,29.89,10.0,SW,11.5,-,N/A,,Mostly Cloudy,220,2012-12-06 20:35:00
2:55 PM,48.2,37.4,66,29.89,10.0,SW,10.4,-,N/A,,Overcast,220,2012-12-06 20:55:00
3:15 PM,48.2,37.4,66,29.89,10.0,SW,9.2,-,N/A,,Mostly Cloudy,230,2012-12-06 21:15:00
3:35 PM,48.2,37.4,66,29.90,10.0,SW,5.8,-,N/A,,Mostly Cloudy,230,2012-12-06 21:35:00
3:55 PM,48.2,37.4,66,29.90,10.0,SW,3.5,-,N/A,,Overcast,220,2012-12-06 21:55:00
4:15 PM,48.2,37.4,66,29.89,10.0,SW,4.6,-,N/A,,Overcast,220,2012-12-06 22:15:00
4:35 PM,46.4,37.4,71,29.90,10.0,WSW,3.5,-,N/A,,Overcast,240,2012-12-06 22:35:00
4:55 PM,46.4,37.4,71,29.89,10.0,Calm,Calm,-,N/A,,Overcast,0,2012-12-06 22:55:00
5:15 PM,46.4,37.4,71,29.90,10.0,NW,4.6,-,N/A,,Overcast,310,2012-12-06 23:15:00
5:35 PM,46.4,37.4,71,29.90,10.0,Calm,Calm,-,N/A,,Overcast,0,2012-12-06 23:35:00
5:55 PM,44.6,37.4,76,29.90,10.0,West,3.5,-,N/A,,Overcast,260,2012-12-06 23:55:00
6:15 PM,44.6,37.4,76,29.91,10.0,West,3.5,-,N/A,,Overcast,280,2012-12-07 00:15:00
6:35 PM,44.6,37.4,76,29.92,10.0,West,3.5,-,N/A,,Overcast,280,2012-12-07 00:35:00
6:55 PM,44.6,37.4,76,29.93,10.0,West,3.5,-,N/A,,Mostly Cloudy,280,2012-12-07 00:55:00
7:15 PM,42.8,37.4,81,29.93,10.0,WNW,5.8,-,N/A,,Clear,290,2012-12-07 01:15:00
7:35 PM,42.8,37.4,81,29.93,10.0,WNW,5.8,-,N/A,,Scattered Clouds,290,2012-12-07 01:35:00
7:55 PM,44.6,37.4,76,29.93,10.0,WNW,8.1,-,N/A,,Scattered Clouds,300,2012-12-07 01:55:00
8:35 PM,42.8,37.4,81,29.94,10.0,WNW,3.5,-,N/A,,Clear,290,2012-12-07 02:35:00
8:55 PM,42.8,35.6,76,29.94,10.0,Calm,Calm,-,N/A,,Clear,0,2012-12-07 02:55:00
9:15 PM,41.0,35.6,81,29.94,10.0,Calm,Calm,-,N/A,,Scattered Clouds,0,2012-12-07 03:15:00
9:35 PM,41.0,35.6,81,29.95,10.0,Calm,Calm,-,N/A,,Mostly Cloudy,0,2012-12-07 03:35:00
9:55 PM,42.8,35.6,76,29.95,10.0,NW,3.5,-,N/A,,Scattered Clouds,310,2012-12-07 03:55:00
10:15 PM,39.2,33.8,81,29.95,10.0,NW,3.5,-,N/A,,Scattered Clouds,310,2012-12-07 04:15:00
10:35 PM,41.0,35.6,81,29.95,10.0,Calm,Calm,-,N/A,,Overcast,0,2012-12-07 04:35:00
10:55 PM,39.2,33.8,81,29.95,10.0,Calm,Calm,-,N/A,,Overcast,0,2012-12-07 04:55:00
11:15 PM,41.0,33.8,76,29.96,10.0,NW,3.5,-,N/A,,Overcast,310,2012-12-07 05:15:00
11:35 PM,41.0,33.8,76,29.96,10.0,Calm,Calm,-,N/A,,Overcast,0,2012-12-07 05:35:00
11:55 PM,39.2,33.8,81,29.95,10.0,Calm,Calm,-,N/A,,Overcast,0,2012-12-07 05:55:00